Meadville, PA

11:13 AM EST on December 10, 2019 (GMT -0500)
Port Meadville

Weather History for KGKJ - October, 2019

Change the Weather History Date:

Saturday, October 19, 2019

  Actual Average Record
Temperature  
Mean Temperature 48 °F -  
Max Temperature 60 °F 57 °F 82 °F (1950)
Min Temperature 36 °F 37 °F 23 °F (1974)
Degree Days  
Heating Degree Days 17    
Moisture  
Dew Point 37 °F    
Average Humidity 69    
Maximum Humidity 93    
Minimum Humidity 44    
Precipitation  
Precipitation 0.00 in - - ()
Sea Level Pressure  
Sea Level Pressure 30.00 in    
Wind  
Wind Speed 2 mph ()    
Max Wind Speed 7 mph    
Max Gust Speed -    
Visibility 10.0 miles    
Events      
Averages and records for this station are not official NWS values.
T = Trace of Precipitation, MM = Missing Value Source: Averaged Metar Reports

Daily Weather History Graph

Daily Weather History Graph

Search for Another Location

Airport or City:

Astronomy

Oct. 19, 2019 Rise Set
Actual Time 7:37 AM EDT 6:33 PM EDT
Civil Twilight 7:09 AM EDT 7:01 PM EDT
Nautical Twilight 6:36 AM EDT 7:34 PM EDT
Astronomical Twilight 6:04 AM EDT 8:06 PM EDT
Moon 10:37 PM EDT (10/19) 1:11 PM EDT (10/19)
Length of Visible Light 11h 52m
Length of Day
10h 56m
Waning Gibbous, 70% of the Moon is Illuminated
Oct 19
Waning Gibbous
Oct 21
Last Quarter
Oct 27
New
Nov 4
First Quarter
Nov 12
Full

Hourly Weather History & Observations

Time (EDT) Temp. Windchill Dew Point Humidity Pressure Visibility Wind Dir Wind Speed Gust Speed Precip Events Conditions
12:53 AM 37.9 °F 35.5 °F 35.1 °F 89% 30.07 in 10.0 mi Variable 3.5 mph - N/A   Clear
1:53 AM 37.0 °F 34.5 °F 34.0 °F 89% 30.06 in 10.0 mi East 3.5 mph - N/A   Clear
2:53 AM 36.0 °F - 34.0 °F 93% 30.07 in 10.0 mi Calm Calm - N/A   Clear
4:53 AM 36.0 °F - 33.1 °F 89% 30.07 in 10.0 mi Calm Calm - N/A   Clear
5:53 AM 36.0 °F 33.3 °F 33.1 °F 89% 30.07 in 10.0 mi ESE 3.5 mph - N/A   Clear
6:53 AM 36.0 °F - 33.1 °F 89% 30.08 in 10.0 mi Calm Calm - N/A   Clear
7:53 AM 36.0 °F 33.3 °F 33.1 °F 89% 30.07 in 10.0 mi East 3.5 mph - N/A   Clear
8:53 AM 39.0 °F 36.8 °F 35.1 °F 86% 30.08 in 10.0 mi Variable 3.5 mph - N/A   Clear
9:53 AM 43.0 °F 39.5 °F 37.9 °F 82% 30.08 in 10.0 mi East 5.8 mph - N/A   Clear
10:53 AM 46.9 °F - 37.9 °F 71% 30.07 in 10.0 mi East 5.8 mph - N/A   Clear
11:53 AM 50.0 °F - 37.9 °F 63% 30.04 in 10.0 mi East 6.9 mph - N/A   Clear
12:53 PM 54.0 °F - 37.9 °F 55% 30.03 in 10.0 mi Variable 5.8 mph - N/A   Clear
1:53 PM 57.0 °F - 37.9 °F 49% 30.00 in 10.0 mi Variable 4.6 mph - N/A   Clear
2:53 PM 57.0 °F - 36.0 °F 45% 29.96 in 10.0 mi Variable 5.8 mph - N/A   Clear
3:53 PM 59.0 °F - 37.0 °F 44% 29.95 in 10.0 mi Variable 5.8 mph - N/A   Clear
4:53 PM 60.1 °F - 37.9 °F 44% 29.93 in 10.0 mi ESE 3.5 mph - N/A   Clear
5:53 PM 55.9 °F - 37.9 °F 51% 29.94 in 10.0 mi Calm Calm - N/A   Clear
6:53 PM 54.0 °F - 37.9 °F 55% 29.93 in 10.0 mi Calm Calm - N/A   Clear
7:53 PM 53.1 °F - 37.9 °F 57% 29.92 in 10.0 mi Calm Calm - N/A   Clear
8:53 PM 53.1 °F - 37.9 °F 57% 29.90 in 10.0 mi Calm Calm - N/A   Clear
9:53 PM 48.9 °F - 37.9 °F 66% 29.91 in 10.0 mi Calm Calm - N/A   Clear
10:53 PM 50.0 °F - 39.9 °F 68% 29.90 in 10.0 mi Calm Calm - N/A   Clear
11:53 PM 48.9 °F - 39.9 °F 71% 29.89 in 10.0 mi Calm Calm - N/A   Clear